contact:dominique.lefevre@mio.osupytheas.fr, maurice.libes@osupytheas.fr, didier.mallarino@osupytheas.fr
Project:EMSO http://www.emso-fr.org/EMSO-France
Depth: 2436.0 m
Title:EMSO Ligure Ouest : Data MII capteur MICROCAT
DateTime_Computer,Latitude,Longitude,Temperature,Conductivity,Pressure,DateTime_Instrument
DateTime_Computer,Latitude,Longitude,degC,S m-1,dbar,DateTime_Instrument
2021-02-23T00:00:16Z,42.805,6.029,13.2980,4.59985,2470.194,2021-2-23T02:01:21Z
2021-02-23T00:03:19Z,42.805,6.029,13.2982,4.59986,2470.18,2021-2-23T02:04:24Z
2021-02-23T00:06:22Z,42.805,6.029,13.2982,4.59985,2470.18,2021-2-23T02:07:27Z
2021-02-23T00:09:25Z,42.805,6.029,13.2976,4.59986,2470.203,2021-2-23T02:10:30Z
2021-02-23T00:12:29Z,42.805,6.029,13.2980,4.59985,2470.18,2021-2-23T02:13:33Z
2021-02-23T00:15:32Z,42.805,6.029,13.2981,4.59986,2470.18,2021-2-23T02:16:36Z
2021-02-23T00:18:35Z,42.805,6.029,13.2983,4.59986,2470.203,2021-2-23T02:19:39Z
2021-02-23T00:21:38Z,42.805,6.029,13.2985,4.59985,2470.18,2021-2-23T02:22:42Z
2021-02-23T00:24:41Z,42.805,6.029,13.2981,4.59985,2470.18,2021-2-23T02:25:46Z
2021-02-23T00:27:44Z,42.805,6.029,13.2979,4.59985,2470.194,2021-2-23T02:28:49Z
2021-02-23T00:30:47Z,42.805,6.029,13.2980,4.59986,2470.203,2021-2-23T02:31:52Z
2021-02-23T00:33:50Z,42.805,6.029,13.2981,4.59986,2470.203,2021-2-23T02:34:55Z
2021-02-23T00:36:54Z,42.805,6.029,13.2985,4.59985,2470.194,2021-2-23T02:37:58Z
2021-02-23T00:39:57Z,42.805,6.029,13.2982,4.59985,2470.203,2021-2-23T02:41:01Z
2021-02-23T00:43:00Z,42.805,6.029,13.2983,4.59986,2470.227,2021-2-23T02:44:04Z
2021-02-23T00:46:03Z,42.805,6.029,13.2982,4.59986,2470.227,2021-2-23T02:47:07Z
2021-02-23T00:49:06Z,42.805,6.029,13.2980,4.59985,2470.24,2021-2-23T02:50:11Z
2021-02-23T00:52:09Z,42.805,6.029,13.2979,4.59985,2470.227,2021-2-23T02:53:14Z
2021-02-23T00:55:12Z,42.805,6.029,13.2982,4.59985,2470.227,2021-2-23T02:56:17Z
2021-02-23T00:58:15Z,42.805,6.029,13.2982,4.59985,2470.227,2021-2-23T02:59:20Z
2021-02-23T01:01:19Z,42.805,6.029,13.2981,4.59985,2470.24,2021-2-23T03:02:23Z
2021-02-23T01:04:22Z,42.805,6.029,13.2979,4.59986,2470.217,2021-2-23T03:05:26Z
2021-02-23T01:07:25Z,42.805,6.029,13.2985,4.59985,2470.194,2021-2-23T03:08:29Z
2021-02-23T01:10:28Z,42.805,6.029,13.2983,4.59985,2470.227,2021-2-23T03:11:32Z
2021-02-23T01:13:31Z,42.805,6.029,13.2982,4.59984,2470.227,2021-2-23T03:14:36Z
2021-02-23T01:16:34Z,42.805,6.029,13.2983,4.59985,2470.264,2021-2-23T03:17:39Z
2021-02-23T01:19:37Z,42.805,6.029,13.2981,4.59986,2470.227,2021-2-23T03:20:42Z
2021-02-23T01:22:40Z,42.805,6.029,13.2979,4.59985,2470.273,2021-2-23T03:23:45Z
2021-02-23T01:25:44Z,42.805,6.029,13.2983,4.59985,2470.227,2021-2-23T03:26:48Z
2021-02-23T01:28:47Z,42.805,6.029,13.2983,4.59986,2470.25,2021-2-23T03:29:51Z
2021-02-23T01:31:50Z,42.805,6.029,13.2983,4.59984,2470.25,2021-2-23T03:32:54Z
2021-02-23T01:34:53Z,42.805,6.029,13.2982,4.59985,2470.227,2021-2-23T03:35:57Z
2021-02-23T01:37:56Z,42.805,6.029,13.2984,4.59985,2470.227,2021-2-23T03:39:01Z
2021-02-23T01:40:59Z,42.805,6.029,13.2983,4.59986,2470.227,2021-2-23T03:42:04Z
2021-02-23T01:44:02Z,42.805,6.029,13.2981,4.59984,2470.24,2021-2-23T03:45:07Z
2021-02-23T01:47:05Z,42.805,6.029,13.2979,4.59985,2470.25,2021-2-23T03:48:10Z
2021-02-23T01:50:09Z,42.805,6.029,13.2981,4.59985,2470.264,2021-2-23T03:51:13Z
2021-02-23T01:53:12Z,42.805,6.029,13.2983,4.59985,2470.287,2021-2-23T03:54:16Z
2021-02-23T01:56:15Z,42.805,6.029,13.2982,4.59986,2470.25,2021-2-23T03:57:19Z
2021-02-23T01:59:18Z,42.805,6.029,13.2979,4.59985,2470.287,2021-2-23T04:00:22Z
2021-02-23T02:02:21Z,42.805,6.029,13.2982,4.59986,2470.287,2021-2-23T04:03:26Z
2021-02-23T02:05:24Z,42.805,6.029,13.2982,4.59986,2470.25,2021-2-23T04:06:29Z
2021-02-23T02:08:27Z,42.805,6.029,13.2980,4.59986,2470.273,2021-2-23T04:09:32Z
2021-02-23T02:11:30Z,42.805,6.029,13.2982,4.59986,2470.287,2021-2-23T04:12:35Z
2021-02-23T02:14:34Z,42.805,6.029,13.2984,4.59985,2470.25,2021-2-23T04:15:38Z
2021-02-23T02:17:37Z,42.805,6.029,13.2986,4.59986,2470.273,2021-2-23T04:18:41Z
2021-02-23T02:20:40Z,42.805,6.029,13.2980,4.59985,2470.297,2021-2-23T04:21:44Z
2021-02-23T02:23:43Z,42.805,6.029,13.2983,4.59986,2470.273,2021-2-23T04:24:47Z
2021-02-23T02:26:46Z,42.805,6.029,13.2981,4.59985,2470.297,2021-2-23T04:27:50Z
2021-02-23T02:29:49Z,42.805,6.029,13.2982,4.59986,2470.273,2021-2-23T04:30:54Z
2021-02-23T02:32:52Z,42.805,6.029,13.2981,4.59986,2470.25,2021-2-23T04:33:57Z
2021-02-23T02:35:55Z,42.805,6.029,13.2984,4.59986,2470.287,2021-2-23T04:37:00Z
2021-02-23T02:38:58Z,42.805,6.029,13.2980,4.59985,2470.273,2021-2-23T04:40:03Z
2021-02-23T02:42:02Z,42.805,6.029,13.2982,4.59986,2470.25,2021-2-23T04:43:06Z
2021-02-23T02:45:05Z,42.805,6.029,13.2982,4.59986,2470.264,2021-2-23T04:46:09Z
2021-02-23T02:48:08Z,42.805,6.029,13.2982,4.59986,2470.297,2021-2-23T04:49:12Z
2021-02-23T02:51:11Z,42.805,6.029,13.2986,4.59986,2470.297,2021-2-23T04:52:15Z
2021-02-23T02:54:14Z,42.805,6.029,13.2981,4.59985,2470.273,2021-2-23T04:55:19Z
2021-02-23T02:57:17Z,42.805,6.029,13.2982,4.59986,2470.32,2021-2-23T04:58:22Z
2021-02-23T03:00:20Z,42.805,6.029,13.2979,4.59985,2470.297,2021-2-23T05:01:25Z
2021-02-23T03:03:23Z,42.805,6.029,13.2982,4.59985,2470.31,2021-2-23T05:04:28Z
2021-02-23T03:06:27Z,42.805,6.029,13.2981,4.59985,2470.287,2021-2-23T05:07:31Z
2021-02-23T03:09:30Z,42.805,6.029,13.2979,4.59986,2470.283,2021-2-23T05:10:34Z
2021-02-23T03:12:33Z,42.805,6.029,13.2982,4.59985,2470.297,2021-2-23T05:13:37Z
2021-02-23T03:15:36Z,42.805,6.029,13.2981,4.59986,2470.297,2021-2-23T05:16:40Z
2021-02-23T03:18:39Z,42.805,6.029,13.2983,4.59986,2470.297,2021-2-23T05:19:44Z
2021-02-23T03:21:42Z,42.805,6.029,13.2984,4.59985,2470.297,2021-2-23T05:22:47Z
2021-02-23T03:24:45Z,42.805,6.029,13.2982,4.59986,2470.31,2021-2-23T05:25:50Z
2021-02-23T03:27:48Z,42.805,6.029,13.2979,4.59985,2470.273,2021-2-23T05:28:53Z
2021-02-23T03:30:52Z,42.805,6.029,13.2980,4.59985,2470.334,2021-2-23T05:31:56Z
2021-02-23T03:33:55Z,42.805,6.029,13.2982,4.59986,2470.32,2021-2-23T05:34:59Z
2021-02-23T03:36:58Z,42.805,6.029,13.2982,4.59985,2470.297,2021-2-23T05:38:02Z
2021-02-23T03:40:01Z,42.805,6.029,13.2982,4.59985,2470.32,2021-2-23T05:41:05Z
2021-02-23T03:43:04Z,42.805,6.029,13.2983,4.59985,2470.334,2021-2-23T05:44:09Z
2021-02-23T03:46:07Z,42.805,6.029,13.2983,4.59984,2470.343,2021-2-23T05:47:12Z
2021-02-23T03:49:10Z,42.805,6.029,13.2982,4.59986,2470.334,2021-2-23T05:50:15Z
2021-02-23T03:52:13Z,42.805,6.029,13.2982,4.59985,2470.343,2021-2-23T05:53:18Z
2021-02-23T03:55:17Z,42.805,6.029,13.2982,4.59984,2470.297,2021-2-23T05:56:21Z
2021-02-23T03:58:20Z,42.805,6.029,13.2984,4.59985,2470.343,2021-2-23T05:59:24Z
2021-02-23T04:01:23Z,42.805,6.029,13.2983,4.59985,2470.297,2021-2-23T06:02:27Z
2021-02-23T04:04:26Z,42.805,6.029,13.2980,4.59985,2470.343,2021-2-23T06:05:30Z
2021-02-23T04:07:29Z,42.805,6.029,13.2982,4.59985,2470.32,2021-2-23T06:08:34Z
2021-02-23T04:10:32Z,42.805,6.029,13.2981,4.59985,2470.343,2021-2-23T06:11:37Z
2021-02-23T04:13:35Z,42.805,6.029,13.2982,4.59985,2470.334,2021-2-23T06:14:40Z
2021-02-23T04:16:38Z,42.805,6.029,13.2982,4.59985,2470.297,2021-2-23T06:17:43Z
2021-02-23T04:19:42Z,42.805,6.029,13.2981,4.59984,2470.297,2021-2-23T06:20:46Z
2021-02-23T04:22:45Z,42.805,6.029,13.2980,4.59984,2470.357,2021-2-23T06:23:49Z
2021-02-23T04:25:48Z,42.805,6.029,13.2985,4.59985,2470.31,2021-2-23T06:26:52Z
2021-02-23T04:28:51Z,42.805,6.029,13.2982,4.59985,2470.357,2021-2-23T06:29:55Z
2021-02-23T04:31:54Z,42.805,6.029,13.2982,4.59984,2470.32,2021-2-23T06:32:59Z
2021-02-23T04:34:57Z,42.805,6.029,13.2981,4.59984,2470.32,2021-2-23T06:36:02Z
2021-02-23T04:38:00Z,42.805,6.029,13.2982,4.59985,2470.334,2021-2-23T06:39:05Z
2021-02-23T04:41:03Z,42.805,6.029,13.2981,4.59985,2470.334,2021-2-23T06:42:08Z
2021-02-23T04:44:06Z,42.805,6.029,13.2983,4.59985,2470.32,2021-2-23T06:45:11Z
2021-02-23T04:47:10Z,42.805,6.029,13.2983,4.59985,2470.343,2021-2-23T06:48:14Z
2021-02-23T04:50:13Z,42.805,6.029,13.2982,4.59985,2470.343,2021-2-23T06:51:17Z
2021-02-23T04:53:16Z,42.805,6.029,13.2983,4.59984,2470.343,2021-2-23T06:54:20Z
2021-02-23T04:56:19Z,42.805,6.029,13.2979,4.59985,2470.334,2021-2-23T06:57:24Z
2021-02-23T04:59:22Z,42.805,6.029,13.2980,4.59984,2470.334,2021-2-23T07:00:27Z
2021-02-23T05:02:25Z,42.805,6.029,13.2980,4.59985,2470.343,2021-2-23T07:03:30Z
2021-02-23T05:05:28Z,42.805,6.029,13.2981,4.59984,2470.366,2021-2-23T07:06:33Z
2021-02-23T05:08:31Z,42.805,6.029,13.2979,4.59985,2470.32,2021-2-23T07:09:36Z
2021-02-23T05:11:35Z,42.805,6.029,13.2982,4.59985,2470.343,2021-2-23T07:12:39Z
2021-02-23T05:14:38Z,42.805,6.029,13.2983,4.59985,2470.343,2021-2-23T07:15:42Z
2021-02-23T05:17:41Z,42.805,6.029,13.2979,4.59985,2470.343,2021-2-23T07:18:45Z
2021-02-23T05:20:44Z,42.805,6.029,13.2981,4.59985,2470.366,2021-2-23T07:21:48Z
2021-02-23T05:23:47Z,42.805,6.029,13.2982,4.59985,2470.343,2021-2-23T07:24:52Z
2021-02-23T05:26:50Z,42.805,6.029,13.2982,4.59985,2470.357,2021-2-23T07:27:55Z
2021-02-23T05:29:53Z,42.805,6.029,13.2984,4.59984,2470.343,2021-2-23T07:30:58Z
2021-02-23T05:32:56Z,42.805,6.029,13.2982,4.59985,2470.343,2021-2-23T07:34:01Z
2021-02-23T05:36:00Z,42.805,6.029,13.2980,4.59984,2470.357,2021-2-23T07:37:04Z
2021-02-23T05:39:03Z,42.805,6.029,13.2977,4.59985,2470.357,2021-2-23T07:40:07Z
2021-02-23T05:42:06Z,42.805,6.029,13.2983,4.59984,2470.343,2021-2-23T07:43:10Z
2021-02-23T05:45:09Z,42.805,6.029,13.2982,4.59984,2470.334,2021-2-23T07:46:13Z
2021-02-23T05:48:12Z,42.805,6.029,13.2980,4.59986,2470.357,2021-2-23T07:49:17Z
2021-02-23T05:51:15Z,42.805,6.029,13.2979,4.59986,2470.32,2021-2-23T07:52:20Z
2021-02-23T05:54:18Z,42.805,6.029,13.2982,4.59985,2470.366,2021-2-23T07:55:23Z
2021-02-23T05:57:21Z,42.805,6.029,13.2983,4.59985,2470.343,2021-2-23T07:58:26Z
2021-02-23T06:00:25Z,42.805,6.029,13.2979,4.59985,2470.33,2021-2-23T08:01:29Z
2021-02-23T06:03:28Z,42.805,6.029,13.2978,4.59984,2470.343,2021-2-23T08:04:32Z
2021-02-23T06:06:31Z,42.805,6.029,13.2979,4.59984,2470.38,2021-2-23T08:07:35Z
2021-02-23T06:09:34Z,42.805,6.029,13.2982,4.59984,2470.357,2021-2-23T08:10:38Z
2021-02-23T06:12:37Z,42.805,6.029,13.2978,4.59985,2470.366,2021-2-23T08:13:42Z
2021-02-23T06:15:40Z,42.805,6.029,13.2983,4.59984,2470.32,2021-2-23T08:16:45Z
2021-02-23T06:18:43Z,42.805,6.029,13.2979,4.59986,2470.334,2021-2-23T08:19:48Z
2021-02-23T06:21:46Z,42.805,6.029,13.2982,4.59986,2470.343,2021-2-23T08:22:51Z
2021-02-23T06:24:50Z,42.805,6.029,13.2981,4.59986,2470.334,2021-2-23T08:25:54Z
2021-02-23T06:27:53Z,42.805,6.029,13.2982,4.59986,2470.32,2021-2-23T08:28:57Z
2021-02-23T06:30:56Z,42.805,6.029,13.2981,4.59986,2470.343,2021-2-23T08:32:00Z
2021-02-23T06:33:59Z,42.805,6.029,13.2976,4.59985,2470.343,2021-2-23T08:35:03Z
2021-02-23T06:37:02Z,42.805,6.029,13.2979,4.59986,2470.343,2021-2-23T08:38:07Z
2021-02-23T06:40:05Z,42.805,6.029,13.2983,4.59986,2470.357,2021-2-23T08:41:10Z
2021-02-23T06:43:08Z,42.805,6.029,13.2980,4.59985,2470.343,2021-2-23T08:44:13Z
2021-02-23T06:46:11Z,42.805,6.029,13.2983,4.59987,2470.343,2021-2-23T08:47:16Z
2021-02-23T06:49:15Z,42.805,6.029,13.2981,4.59987,2470.31,2021-2-23T08:50:19Z
2021-02-23T06:52:18Z,42.805,6.029,13.2981,4.59985,2470.366,2021-2-23T08:53:22Z
2021-02-23T06:55:21Z,42.805,6.029,13.2979,4.59986,2470.343,2021-2-23T08:56:25Z
2021-02-23T06:58:24Z,42.805,6.029,13.2986,4.59986,2470.31,2021-2-23T08:59:28Z
2021-02-23T07:01:27Z,42.805,6.029,13.2982,4.59986,2470.343,2021-2-23T09:02:32Z
2021-02-23T07:04:30Z,42.805,6.029,13.2978,4.59985,2470.343,2021-2-23T09:05:35Z
2021-02-23T07:07:33Z,42.805,6.029,13.2979,4.59985,2470.32,2021-2-23T09:08:38Z
2021-02-23T07:10:36Z,42.805,6.029,13.2979,4.59985,2470.343,2021-2-23T09:11:41Z
2021-02-23T07:13:40Z,42.805,6.029,13.2979,4.59985,2470.32,2021-2-23T09:14:44Z
2021-02-23T07:16:43Z,42.805,6.029,13.2979,4.59985,2470.343,2021-2-23T09:17:47Z
2021-02-23T07:19:46Z,42.805,6.029,13.2979,4.59985,2470.32,2021-2-23T09:20:50Z
2021-02-23T07:22:49Z,42.805,6.029,13.2982,4.59986,2470.32,2021-2-23T09:23:53Z
2021-02-23T07:25:52Z,42.805,6.029,13.2983,4.59985,2470.297,2021-2-23T09:26:57Z
2021-02-23T07:28:55Z,42.805,6.029,13.2982,4.59986,2470.32,2021-2-23T09:30:00Z
2021-02-23T07:31:58Z,42.805,6.029,13.2980,4.59986,2470.357,2021-2-23T09:33:03Z
2021-02-23T07:35:01Z,42.805,6.029,13.2984,4.59985,2470.357,2021-2-23T09:36:06Z
2021-02-23T07:38:05Z,42.805,6.029,13.2981,4.59986,2470.357,2021-2-23T09:39:09Z
2021-02-23T07:41:08Z,42.805,6.029,13.2979,4.59986,2470.334,2021-2-23T09:42:12Z
2021-02-23T07:44:11Z,42.805,6.029,13.2982,4.59985,2470.334,2021-2-23T09:45:15Z
2021-02-23T07:47:14Z,42.805,6.029,13.2982,4.59986,2470.343,2021-2-23T09:48:18Z
2021-02-23T07:50:17Z,42.805,6.029,13.2978,4.59985,2470.32,2021-2-23T09:51:22Z
2021-02-23T07:53:20Z,42.805,6.029,13.2982,4.59986,2470.31,2021-2-23T09:54:25Z
2021-02-23T07:56:23Z,42.805,6.029,13.2982,4.59986,2470.297,2021-2-23T09:57:28Z
2021-02-23T07:59:26Z,42.805,6.029,13.2982,4.59986,2470.32,2021-2-23T10:00:31Z
2021-02-23T08:02:29Z,42.805,6.029,13.2983,4.59986,2470.33,2021-2-23T10:03:34Z
2021-02-23T08:05:33Z,42.805,6.029,13.2982,4.59986,2470.334,2021-2-23T10:06:37Z
2021-02-23T08:08:36Z,42.805,6.029,13.2981,4.59986,2470.32,2021-2-23T10:09:40Z
2021-02-23T08:11:39Z,42.805,6.029,13.2981,4.59986,2470.334,2021-2-23T10:12:43Z
2021-02-23T08:14:42Z,42.805,6.029,13.2980,4.59986,2470.297,2021-2-23T10:15:47Z
2021-02-23T08:17:45Z,42.805,6.029,13.2981,4.59986,2470.287,2021-2-23T10:18:50Z
2021-02-23T08:20:48Z,42.805,6.029,13.2982,4.59986,2470.343,2021-2-23T10:21:53Z
2021-02-23T08:23:51Z,42.805,6.029,13.2981,4.59985,2470.297,2021-2-23T10:24:56Z
2021-02-23T08:26:55Z,42.805,6.029,13.2982,4.59986,2470.287,2021-2-23T10:27:59Z
2021-02-23T08:29:58Z,42.805,6.029,13.2983,4.59985,2470.334,2021-2-23T10:31:02Z
2021-02-23T08:33:01Z,42.805,6.029,13.2986,4.59986,2470.32,2021-2-23T10:34:05Z
2021-02-23T08:36:04Z,42.805,6.029,13.2982,4.59986,2470.264,2021-2-23T10:37:08Z
2021-02-23T08:39:07Z,42.805,6.029,13.2983,4.59986,2470.31,2021-2-23T10:40:12Z
2021-02-23T08:42:10Z,42.805,6.029,13.2981,4.59986,2470.297,2021-2-23T10:43:15Z
2021-02-23T08:45:13Z,42.805,6.029,13.2984,4.59986,2470.273,2021-2-23T10:46:18Z
2021-02-23T08:48:16Z,42.805,6.029,13.2983,4.59986,2470.32,2021-2-23T10:49:21Z
2021-02-23T08:51:20Z,42.805,6.029,13.2979,4.59986,2470.273,2021-2-23T10:52:24Z
2021-02-23T08:54:23Z,42.805,6.029,13.2982,4.59986,2470.31,2021-2-23T10:55:27Z
2021-02-23T08:57:26Z,42.805,6.029,13.2979,4.59986,2470.287,2021-2-23T10:58:30Z
2021-02-23T09:00:29Z,42.805,6.029,13.2981,4.59986,2470.31,2021-2-23T11:01:33Z
2021-02-23T09:03:32Z,42.805,6.029,13.2981,4.59986,2470.31,2021-2-23T11:04:37Z
2021-02-23T09:06:35Z,42.805,6.029,13.2981,4.59987,2470.297,2021-2-23T11:07:40Z
2021-02-23T09:09:38Z,42.805,6.029,13.2983,4.59987,2470.297,2021-2-23T11:10:43Z
2021-02-23T09:12:41Z,42.805,6.029,13.2982,4.59987,2470.273,2021-2-23T11:13:46Z
2021-02-23T09:15:45Z,42.805,6.029,13.2983,4.59986,2470.287,2021-2-23T11:16:49Z
2021-02-23T09:18:48Z,42.805,6.029,13.2983,4.59986,2470.297,2021-2-23T11:19:52Z
2021-02-23T09:21:51Z,42.805,6.029,13.2981,4.59986,2470.297,2021-2-23T11:22:55Z
2021-02-23T09:24:54Z,42.805,6.029,13.2982,4.59986,2470.297,2021-2-23T11:25:58Z
2021-02-23T09:27:57Z,42.805,6.029,13.2981,4.59986,2470.287,2021-2-23T11:29:02Z
2021-02-23T09:31:00Z,42.805,6.029,13.2979,4.59987,2470.297,2021-2-23T11:32:05Z
2021-02-23T09:34:03Z,42.805,6.029,13.2978,4.59986,2470.31,2021-2-23T11:35:08Z
2021-02-23T09:37:06Z,42.805,6.029,13.2983,4.59986,2470.31,2021-2-23T11:38:11Z
2021-02-23T09:40:10Z,42.805,6.029,13.2981,4.59986,2470.273,2021-2-23T11:41:14Z
2021-02-23T09:43:13Z,42.805,6.029,13.2982,4.59988,2470.287,2021-2-23T11:44:17Z
2021-02-23T09:46:16Z,42.805,6.029,13.2986,4.59988,2470.273,2021-2-23T11:47:20Z
2021-02-23T09:49:19Z,42.805,6.029,13.2983,4.59986,2470.273,2021-2-23T11:50:23Z
2021-02-23T09:52:22Z,42.805,6.029,13.2986,4.59988,2470.273,2021-2-23T11:53:27Z
2021-02-23T09:55:25Z,42.805,6.029,13.2983,4.59988,2470.273,2021-2-23T11:56:30Z
2021-02-23T09:58:28Z,42.805,6.029,13.2985,4.59988,2470.273,2021-2-23T11:59:33Z
2021-02-23T10:01:31Z,42.805,6.029,13.2986,4.59987,2470.287,2021-2-23T12:02:36Z
2021-02-23T10:04:35Z,42.805,6.029,13.2983,4.59987,2470.287,2021-2-23T12:05:39Z
2021-02-23T10:07:38Z,42.805,6.029,13.2982,4.59987,2470.25,2021-2-23T12:08:42Z
2021-02-23T10:10:41Z,42.805,6.029,13.2988,4.59988,2470.287,2021-2-23T12:11:45Z
2021-02-23T10:13:44Z,42.805,6.029,13.2982,4.59988,2470.25,2021-2-23T12:14:49Z
2021-02-23T10:16:47Z,42.805,6.029,13.2980,4.59988,2470.287,2021-2-23T12:17:52Z
2021-02-23T10:19:50Z,42.805,6.029,13.2983,4.59988,2470.273,2021-2-23T12:20:55Z
2021-02-23T10:22:53Z,42.805,6.029,13.2983,4.59989,2470.236,2021-2-23T12:23:58Z
2021-02-23T10:25:57Z,42.805,6.029,13.2985,4.59988,2470.25,2021-2-23T12:27:01Z
2021-02-23T10:29:00Z,42.805,6.029,13.2983,4.59990,2470.25,2021-2-23T12:30:04Z
2021-02-23T10:32:03Z,42.805,6.029,13.2986,4.59989,2470.227,2021-2-23T12:33:07Z
2021-02-23T10:35:06Z,42.805,6.029,13.2986,4.59989,2470.25,2021-2-23T12:36:10Z
2021-02-23T10:38:09Z,42.805,6.029,13.2986,4.59989,2470.264,2021-2-23T12:39:14Z
2021-02-23T10:41:12Z,42.805,6.029,13.2987,4.59989,2470.264,2021-2-23T12:42:17Z
2021-02-23T10:44:15Z,42.805,6.029,13.2986,4.59989,2470.25,2021-2-23T12:45:20Z
2021-02-23T10:47:18Z,42.805,6.029,13.2989,4.59990,2470.287,2021-2-23T12:48:23Z
2021-02-23T10:50:22Z,42.805,6.029,13.2985,4.59990,2470.273,2021-2-23T12:51:26Z
2021-02-23T10:53:25Z,42.805,6.029,13.2985,4.59989,2470.273,2021-2-23T12:54:29Z
2021-02-23T10:56:28Z,42.805,6.029,13.2984,4.59990,2470.26,2021-2-23T12:57:32Z
2021-02-23T10:59:31Z,42.805,6.029,13.2986,4.59990,2470.287,2021-2-23T13:00:35Z
2021-02-23T11:02:34Z,42.805,6.029,13.2987,4.59990,2470.297,2021-2-23T13:03:39Z
2021-02-23T11:05:37Z,42.805,6.029,13.2985,4.59990,2470.25,2021-2-23T13:06:42Z
2021-02-23T11:08:40Z,42.805,6.029,13.2984,4.59990,2470.24,2021-2-23T13:09:45Z
2021-02-23T11:11:43Z,42.805,6.029,13.2986,4.59990,2470.25,2021-2-23T13:12:48Z
2021-02-23T11:14:47Z,42.805,6.029,13.2990,4.59990,2470.24,2021-2-23T13:15:51Z
2021-02-23T11:17:50Z,42.805,6.029,13.2988,4.59991,2470.236,2021-2-23T13:18:54Z
2021-02-23T11:20:53Z,42.805,6.029,13.2987,4.59990,2470.273,2021-2-23T13:21:57Z
2021-02-23T11:23:56Z,42.805,6.029,13.2989,4.59990,2470.273,2021-2-23T13:25:00Z
2021-02-23T11:26:59Z,42.805,6.029,13.2987,4.59991,2470.227,2021-2-23T13:28:04Z
2021-02-23T11:30:02Z,42.805,6.029,13.2990,4.59991,2470.273,2021-2-23T13:31:07Z
2021-02-23T11:33:05Z,42.805,6.029,13.2990,4.59991,2470.25,2021-2-23T13:34:10Z
2021-02-23T11:36:08Z,42.805,6.029,13.2986,4.59991,2470.25,2021-2-23T13:37:13Z
2021-02-23T11:39:12Z,42.805,6.029,13.2986,4.59991,2470.264,2021-2-23T13:40:16Z
2021-02-23T11:42:15Z,42.805,6.029,13.2990,4.59991,2470.203,2021-2-23T13:43:19Z
2021-02-23T11:45:18Z,42.805,6.029,13.2987,4.59990,2470.25,2021-2-23T13:46:22Z
2021-02-23T11:48:21Z,42.805,6.029,13.2984,4.59990,2470.24,2021-2-23T13:49:26Z
2021-02-23T11:51:24Z,42.805,6.029,13.2988,4.59991,2470.227,2021-2-23T13:52:29Z
2021-02-23T11:54:27Z,42.805,6.029,13.2983,4.59991,2470.25,2021-2-23T13:55:32Z
2021-02-23T11:57:30Z,42.805,6.029,13.2986,4.59991,2470.273,2021-2-23T13:58:35Z
2021-02-23T12:00:33Z,42.805,6.029,13.2991,4.59991,2470.25,2021-2-23T14:01:38Z
2021-02-23T12:03:37Z,42.805,6.029,13.2984,4.59992,2470.217,2021-2-23T14:04:41Z
2021-02-23T12:06:40Z,42.805,6.029,13.2983,4.59991,2470.264,2021-2-23T14:07:44Z
2021-02-23T12:09:43Z,42.805,6.029,13.2986,4.59991,2470.25,2021-2-23T14:10:47Z
2021-02-23T12:12:46Z,42.805,6.029,13.2990,4.59992,2470.25,2021-2-23T14:13:51Z
2021-02-23T12:15:49Z,42.805,6.029,13.2986,4.59991,2470.25,2021-2-23T14:16:54Z
2021-02-23T12:18:52Z,42.805,6.029,13.2987,4.59991,2470.203,2021-2-23T14:19:57Z
2021-02-23T12:21:55Z,42.805,6.029,13.2986,4.59991,2470.25,2021-2-23T14:23:00Z
2021-02-23T12:24:59Z,42.805,6.029,13.2987,4.59992,2470.287,2021-2-23T14:26:03Z
2021-02-23T12:28:02Z,42.805,6.029,13.2987,4.59993,2470.203,2021-2-23T14:29:06Z
2021-02-23T12:31:05Z,42.805,6.029,13.2990,4.59994,2470.264,2021-2-23T14:32:09Z
2021-02-23T12:34:08Z,42.805,6.029,13.2991,4.59993,2470.24,2021-2-23T14:35:12Z
2021-02-23T12:37:11Z,42.805,6.029,13.2986,4.59992,2470.25,2021-2-23T14:38:16Z
2021-02-23T12:40:14Z,42.805,6.029,13.2990,4.59992,2470.227,2021-2-23T14:41:19Z
2021-02-23T12:43:17Z,42.805,6.029,13.2985,4.59994,2470.227,2021-2-23T14:44:22Z
2021-02-23T12:46:20Z,42.805,6.029,13.2989,4.59992,2470.24,2021-2-23T14:47:25Z
2021-02-23T12:49:24Z,42.805,6.029,13.2991,4.59993,2470.25,2021-2-23T14:50:28Z
2021-02-23T12:52:27Z,42.805,6.029,13.2990,4.59994,2470.264,2021-2-23T14:53:31Z
2021-02-23T12:55:30Z,42.805,6.029,13.2986,4.59994,2470.264,2021-2-23T14:56:34Z
2021-02-23T12:58:33Z,42.805,6.029,13.2990,4.59994,2470.227,2021-2-23T14:59:37Z
2021-02-23T13:01:36Z,42.805,6.029,13.2988,4.59994,2470.24,2021-2-23T15:02:41Z
2021-02-23T13:04:39Z,42.805,6.029,13.2987,4.59993,2470.273,2021-2-23T15:05:44Z
2021-02-23T13:07:42Z,42.805,6.029,13.2990,4.59994,2470.273,2021-2-23T15:08:47Z
2021-02-23T13:10:45Z,42.805,6.029,13.2989,4.59994,2470.24,2021-2-23T15:11:50Z
2021-02-23T13:13:49Z,42.805,6.029,13.2990,4.59993,2470.273,2021-2-23T15:14:53Z
2021-02-23T13:16:52Z,42.805,6.029,13.2991,4.59993,2470.264,2021-2-23T15:17:56Z
2021-02-23T13:19:55Z,42.805,6.029,13.2990,4.59994,2470.264,2021-2-23T15:20:59Z
2021-02-23T13:22:58Z,42.805,6.029,13.2987,4.59994,2470.273,2021-2-23T15:24:02Z
2021-02-23T13:26:01Z,42.805,6.029,13.2992,4.59994,2470.25,2021-2-23T15:27:06Z
2021-02-23T13:29:04Z,42.805,6.029,13.2992,4.59994,2470.227,2021-2-23T15:30:09Z
2021-02-23T13:32:07Z,42.805,6.029,13.2991,4.59994,2470.273,2021-2-23T15:33:12Z
2021-02-23T13:35:11Z,42.805,6.029,13.2990,4.59994,2470.287,2021-2-23T15:36:15Z
2021-02-23T13:38:14Z,42.805,6.029,13.2993,4.59993,2470.25,2021-2-23T15:39:18Z
2021-02-23T13:41:17Z,42.805,6.029,13.2992,4.59994,2470.227,2021-2-23T15:42:21Z
2021-02-23T13:44:20Z,42.805,6.029,13.2992,4.59994,2470.264,2021-2-23T15:45:24Z
2021-02-23T13:47:23Z,42.805,6.029,13.2992,4.59995,2470.273,2021-2-23T15:48:28Z
2021-02-23T13:50:26Z,42.805,6.029,13.2993,4.59995,2470.287,2021-2-23T15:51:31Z
2021-02-23T13:53:29Z,42.805,6.029,13.2990,4.59995,2470.264,2021-2-23T15:54:34Z
2021-02-23T13:56:32Z,42.805,6.029,13.2992,4.59994,2470.25,2021-2-23T15:57:37Z
2021-02-23T13:59:36Z,42.805,6.029,13.2990,4.59994,2470.25,2021-2-23T16:00:40Z
2021-02-23T14:02:39Z,42.805,6.029,13.2987,4.59994,2470.227,2021-2-23T16:03:43Z
2021-02-23T14:05:42Z,42.805,6.029,13.2992,4.59994,2470.273,2021-2-23T16:06:46Z
2021-02-23T14:08:45Z,42.805,6.029,13.2990,4.59995,2470.287,2021-2-23T16:09:49Z
2021-02-23T14:11:48Z,42.805,6.029,13.2990,4.59994,2470.227,2021-2-23T16:12:53Z
2021-02-23T14:14:51Z,42.805,6.029,13.2989,4.59995,2470.287,2021-2-23T16:15:56Z
2021-02-23T14:17:54Z,42.805,6.029,13.2990,4.59996,2470.273,2021-2-23T16:18:59Z
2021-02-23T14:20:57Z,42.805,6.029,13.2986,4.59994,2470.25,2021-2-23T16:22:02Z
2021-02-23T14:24:01Z,42.805,6.029,13.2992,4.59994,2470.264,2021-2-23T16:25:05Z
2021-02-23T14:27:04Z,42.805,6.029,13.2991,4.59994,2470.297,2021-2-23T16:28:08Z
2021-02-23T14:30:07Z,42.805,6.029,13.2991,4.59995,2470.287,2021-2-23T16:31:11Z
2021-02-23T14:33:10Z,42.805,6.029,13.2993,4.59995,2470.264,2021-2-23T16:34:14Z
2021-02-23T14:36:13Z,42.805,6.029,13.2991,4.59994,2470.32,2021-2-23T16:37:18Z
2021-02-23T14:39:16Z,42.805,6.029,13.2991,4.59995,2470.25,2021-2-23T16:40:21Z
2021-02-23T14:42:19Z,42.805,6.029,13.2989,4.59994,2470.273,2021-2-23T16:43:24Z
2021-02-23T14:45:22Z,42.805,6.029,13.2989,4.59995,2470.264,2021-2-23T16:46:27Z
2021-02-23T14:48:26Z,42.805,6.029,13.2987,4.59994,2470.273,2021-2-23T16:49:30Z
2021-02-23T14:51:29Z,42.805,6.029,13.2990,4.59994,2470.25,2021-2-23T16:52:33Z
2021-02-23T14:54:32Z,42.805,6.029,13.2990,4.59994,2470.297,2021-2-23T16:55:36Z
2021-02-23T14:57:35Z,42.805,6.029,13.2995,4.59994,2470.273,2021-2-23T16:58:39Z
2021-02-23T15:00:38Z,42.805,6.029,13.2992,4.59994,2470.25,2021-2-23T17:01:43Z
2021-02-23T15:03:41Z,42.805,6.029,13.2991,4.59994,2470.236,2021-2-23T17:04:46Z
2021-02-23T15:06:44Z,42.805,6.029,13.2991,4.59995,2470.25,2021-2-23T17:07:49Z
2021-02-23T15:09:47Z,42.805,6.029,13.2994,4.59994,2470.287,2021-2-23T17:10:52Z
2021-02-23T15:12:51Z,42.805,6.029,13.2991,4.59994,2470.25,2021-2-23T17:13:55Z